Вернуться в каталог

STARLINK-36673

АктивенСвязьSSO
NORAD 67660·PAYLOAD·🇺🇸 United States

Запущен Feb 2, 2026 с Vandenberg Space Force Base

Loading…

Ближайшие Пролёты (ближайшие 24 часа)

TLE

СвежийSource: CelesTrak SupGP

Эпоха: Sep 15, 2026, 03:50 UTC

1 67660C 26022N   26258.16020833 -.00045471  00000+0 -14115-2 0  2587
2 67660  97.2841 289.8132 0001491  88.3064 131.3084 15.33462600    16

Отслеживайте STARLINK-36673 в реальном времени с AllMySat

Download on the App Store